This is the latest recevied weather packets stored in our database for station/object WS4FSC-7. If no packets are shown the sender has not sent any weather packets the latest 10 day(s).
| Time | Temp. | Humidity | Pressure | Rain* | Wind** | Luminosity | Snow |
|---|---|---|---|---|---|---|---|
| 1788191091 | 30.56° C | 77% | 1016 hPa | - | - | 266 W/m² | - |
| 1788190551 | 30.56° C | 76% | 1016 hPa | - | - | 219 W/m² | - |
| 1788190011 | 31.11° C | 74% | 1016 hPa | - | - | 228 W/m² | - |
| 1788189831 | 31.11° C | 74% | 1016 hPa | - | - | 314 W/m² | - |
| 1788189651 | 31.67° C | 73% | 1016 hPa | - | - | 451 W/m² | - |
| 1788189292 | 31.67° C | 74% | 1016 hPa | - | - | 478 W/m² | - |
| 1788187492 | 31.67° C | 74% | 1016 hPa | - | - | 675 W/m² | - |
| 1788187311 | 31.67° C | 74% | 1016 hPa | - | - | 684 W/m² | - |
| 1788186951 | 31.11° C | 75% | 1016 hPa | - | - | 309 W/m² | - |
| 1788186245 | 30.56° C | 77% | 1016 hPa | - | - | 652 W/m² | - |
| 1788186051 | 30.56° C | 76% | 1016 hPa | - | - | 612 W/m² | - |
| 1788184800 | 29.44° C | 77% | 1016 hPa | - | - | 217 W/m² | - |
| 1788184251 | 29.44° C | 81% | 1015 hPa | - | - | 460 W/m² | - |
| 1788183530 | 29.44° C | 86% | 1016 hPa | - | - | 267 W/m² | - |
| 1788182990 | 28.33° C | 89% | 1016 hPa | - | - | 257 W/m² | - |
| 1788182450 | 27.22° C | 91% | 1016 hPa | - | - | 116 W/m² | - |
| 1788182091 | 27.22° C | 91% | 1015 hPa | - | - | 80 W/m² | - |
| 1788181732 | 27.22° C | 91% | 1015 hPa | - | - | 83 W/m² | - |
| 1788181551 | 27.22° C | 92% | 1015 hPa | - | - | 81 W/m² | - |
| 1788181192 | 26.67° C | 92% | 1015 hPa | - | - | 55 W/m² | - |
| 1788180831 | 26.67° C | 92% | 1015 hPa | - | - | 50 W/m² | - |
| 1788180651 | 26.67° C | 92% | 1015 hPa | - | - | 45 W/m² | - |
| 1788180291 | 26.67° C | 93% | 1015 hPa | - | - | 42 W/m² | - |
| 1788179751 | 26.67° C | 93% | 1015 hPa | - | - | 44 W/m² | - |
| 1788178850 | 26.11° C | 94% | 1015 hPa | - | - | 59 W/m² | - |
* Rain since midnight (hover to see other rain measurements)
** Current wind speed in m/s (hover to see current wind gust speed)